STARLINK-1265, 45406

Orbit data source: Space-Track

STARLINK-1265, 45406 is a payload satellite owned by SpaceX/Seattle (US) in LEO that was launched on Wed, 18 Mar 2020 UTC via an FALCON 9 launch vehicle from the Air Force Eastern Test Range (AFETR). Payload-class satellites include a variety of spacecraft equipped with specific instruments for various scientific and technological missions. These include communications satellites like Starlink; space stations such as the ISS; scientific satellites like the Hubble; Earth observation satellites from companies like Planet Labs, Umbra, and HawkEye 360; GPS; miniature CubeSats for education and research; and military/defense satellites.

Loading next visibility...
Identifier
45406, 2020-019AY
Orbit
LEO
Country
Flag of USUS
Related business
Manufacturer
SpaceX/Seattle
Mission
Partially operational Commercial Communications
Bus & Motor
STARLINK, Unknown motor
Mass
260 kg wet, ~248 kg dry
Launch date (UTC)
2020-03-18 (6 years ago)
Launch vehicle
FALCON 9
Launch site
Air Force Eastern Test Range (AFETR)
Object type
Payload
Rocket body
Debris
Shape & HBR
Box + 1 Pan, 10.1 m
Radar Cross Section
13.562 m², Large (>1 m²)

Expand to show TLE details & history
Last TLE update: 15 hours ago

TLE from 15 hours ago
0 STARLINK-1265
1 45406U 20019AY  26132.86712791  .00026715  00000-0  76456-3 0  9998
2 45406  53.1568 190.1224 0005147 354.7524   5.3425 15.35778219339816
Epoch: 2026-05-12T20:48Z
TLE epoch observation values (Epoch: 2026-05-12T20:48:39.851Z)
Latitude
0.00003°
Longitude
7.32103°
Altitude
456.008 km
Speed
7.642 km/s
True Right ascension
12h 40m 29s
True Declination
0° 00' 00"
Sunlit
Object was in full shadow at epoch
Visualization orbit readout
Latitude
Unknown
Longitude
Unknown
Altitude
Unknown
Speed
Unknown
Apparent Right ascension
Unknown
Apparent Declination
Unknown
Sunlit
N/A
Visualization observer readout
Local Sidereal Time
19:58:34
Azimuth
Unknown
Elevation
Unknown
Doppler factor
Unknown
Orbital elements
Apogee altitude
462.387 km
Perigee altitude
455.348 km
Semi-major axis
6,837.004 km
Eccentricity
0.00051
Inclination
53.1568°
RAAN
190.1224°
Arg. of periapsis
354.7524°
True anomaly
5.348°
Mean anomaly
5.3425°
Eccentric anomaly
5.34525°
Mean motion
3.83923 °/min
Orbital period
93.77 mins
BSTAR
0.00076456
Loading maneuver chart data...
Computing Atmospheric mass density...
Loading historical data...
Loading historical data...
Loading historical data...
Loading historical data...
Loading historical data...
Loading historical data...
Loading historical data...

Documentation

Showing up to 5 results
|